Orangeburg, SC

2:34 PM EDT on May 26, 2018 (GMT -0400)
Orangeburg Municipal

Weather History for KOGB - June, 2013

Change the Weather History Date:

Thursday, June 20, 2013

  Actual Average Record
Temperature  
Mean Temperature 77 °F 79 °F  
Max Temperature 85 °F 90 °F 101 °F (2011)
Min Temperature 69 °F 69 °F 58 °F (1961)
Degree Days  
Heating Degree Days 0 0  
Month to date heating degree days 0 0  
Since 1 June heating degree days 0 0  
Since 1 July heating degree days 2181 2332  
Cooling Degree Days 12 14  
Month to date cooling degree days 274 249  
Year to date cooling degree days 536 552  
Since 1 June cooling degree days 274 249  
Growing Degree Days 26 (Base 50)    
Moisture  
Dew Point 66 °F    
Average Humidity 77    
Maximum Humidity 97    
Minimum Humidity 51    
Precipitation  
Precipitation 0.02 in 0.19 in 1.46 in (1972)
Month to date precipitation 6.14 3.39  
Year to date precipitation 23.52 21.01  
Sea Level Pressure  
Sea Level Pressure 30.13 in    
Wind  
Wind Speed 6 mph (ENE)    
Max Wind Speed 16 mph    
Max Gust Speed 22 mph    
Visibility 9 miles    
Events Rain    
T = Trace of Precipitation, MM = Missing Value Source: NWS Daily Summary

Daily Weather History Graph

Daily Weather History Graph

Search for Another Location

Airport or City:

Astronomy

Jun. 20, 2013 Rise Set
Actual Time 6:13 AM EDT 8:36 PM EDT
Civil Twilight 5:44 AM EDT 9:05 PM EDT
Nautical Twilight 5:09 AM EDT 9:40 PM EDT
Astronomical Twilight 4:30 AM EDT 10:19 PM EDT
Moon 5:41 PM EDT (6/20) 3:32 AM EDT (6/20)
Length of Visible Light 15h 20m
Length of Day
14h 22m
Waxing Gibbous, 89% of the Moon is Illuminated
Jun 20
Waxing Gibbous
Jun 23
Full
Jun 30
Last Quarter
Jul 8
New
Jul 15
First Quarter

Hourly Weather History & Observations

Time (EDT) Temp. Heat Index Dew Point Humidity Pressure Visibility Wind Dir Wind Speed Gust Speed Precip Events Conditions
12:53 AM 71.1 °F - 66.9 °F 87% 30.07 in 10.0 mi ENE 4.6 mph - N/A   Scattered Clouds
1:53 AM 70.0 °F - 66.9 °F 90% 30.06 in 10.0 mi NNE 3.5 mph - N/A   Mostly Cloudy
2:53 AM 70.0 °F - 66.9 °F 90% 30.06 in 10.0 mi NE 5.8 mph - N/A   Overcast
3:53 AM 71.1 °F - 68.0 °F 90% 30.06 in 10.0 mi NE 4.6 mph - 0.00 in Rain Light Rain
4:48 AM 69.8 °F - 68.0 °F 94% 30.07 in 5.0 mi NE 4.6 mph - 0.00 in Rain Light Rain
4:53 AM 70.0 °F - 68.0 °F 93% 30.07 in 4.0 mi NE 4.6 mph - 0.00 in Rain Light Rain
5:08 AM 69.8 °F - 68.0 °F 94% 30.08 in 5.0 mi NNE 5.8 mph - 0.01 in Rain Light Rain
5:50 AM 69.8 °F - 68.0 °F 94% 30.10 in 5.0 mi NE 6.9 mph - 0.02 in Rain Light Rain
5:53 AM 70.0 °F - 68.0 °F 93% 30.09 in 5.0 mi NE 5.8 mph - 0.02 in Rain Light Rain
6:50 AM 71.6 °F - 68.0 °F 88% 30.12 in 8.0 mi NE 5.8 mph - 0.00 in   Overcast
6:53 AM 71.1 °F - 68.0 °F 90% 30.12 in 8.0 mi NE 6.9 mph - 0.00 in   Overcast
7:08 AM 71.6 °F - 68.0 °F 88% 30.13 in 9.0 mi ENE 5.8 mph - N/A   Overcast
7:15 AM 71.6 °F - 68.0 °F 88% 30.13 in 9.0 mi NE 8.1 mph - N/A   Overcast
7:53 AM 71.1 °F - 68.0 °F 90% 30.14 in 10.0 mi ENE 9.2 mph - 0.00 in   Overcast
8:00 AM 71.6 °F - 68.0 °F 88% 30.15 in 10.0 mi ENE 6.9 mph - N/A   Overcast
8:53 AM 73.0 °F - 66.9 °F 81% 30.16 in 10.0 mi NE 10.4 mph - N/A   Scattered Clouds
9:53 AM 75.0 °F - 66.9 °F 76% 30.16 in 10.0 mi ENE 5.8 mph - N/A   Clear
10:53 AM 78.1 °F - 64.0 °F 62% 30.16 in 10.0 mi ENE 11.5 mph - N/A   Scattered Clouds
11:53 AM 80.1 °F 81.7 °F 64.0 °F 58% 30.17 in 10.0 mi NE 13.8 mph - N/A   Clear
12:53 PM 82.0 °F 83.0 °F 62.1 °F 51% 30.17 in 10.0 mi ENE 11.5 mph 19.6 mph N/A   Clear
1:53 PM 82.0 °F 83.4 °F 64.0 °F 54% 30.17 in 10.0 mi Variable 6.9 mph 17.3 mph N/A   Partly Cloudy
2:53 PM 84.0 °F 85.4 °F 64.0 °F 51% 30.16 in 10.0 mi East 6.9 mph 17.3 mph N/A   Scattered Clouds
3:53 PM 84.0 °F 85.4 °F 64.0 °F 51% 30.15 in 10.0 mi ENE 10.4 mph 16.1 mph N/A   Scattered Clouds
4:53 PM 82.9 °F 84.4 °F 64.0 °F 53% 30.14 in 10.0 mi East 9.2 mph - N/A   Mostly Cloudy
5:53 PM 82.9 °F 84.4 °F 64.0 °F 53% 30.13 in 10.0 mi ENE 6.9 mph - N/A   Mostly Cloudy
6:53 PM 81.0 °F 82.5 °F 64.0 °F 56% 30.13 in 10.0 mi East 4.6 mph - N/A   Partly Cloudy
7:53 PM 80.1 °F 81.9 °F 64.9 °F 60% 30.13 in 10.0 mi East 3.5 mph - N/A   Clear
8:53 PM 75.9 °F - 66.9 °F 74% 30.14 in 10.0 mi Calm Calm - N/A   Clear
9:53 PM 73.0 °F - 69.1 °F 87% 30.16 in 10.0 mi Calm Calm - N/A   Partly Cloudy
10:53 PM 73.0 °F - 66.0 °F 79% 30.18 in 10.0 mi Calm Calm - N/A   Clear
11:53 PM 70.0 °F - 66.9 °F 90% 30.18 in 10.0 mi Calm Calm - N/A   Clear